Weather History for K1B7 - September, 2013

Change the Weather History Date:

Sunday, September 29, 2013

  Actual Average (KAXO) Record (KAXO)
Temperature  
Mean Temperature 78 °F -  
Max Temperature 84 °F 77 °F 87 °F (1999)
Min Temperature 73 °F 74 °F 73 °F (2000)
Cooling Degree Days 14    
Growing Degree Days 28 (Base 50)    
Moisture  
Dew Point 70 °F    
Average Humidity 68    
Maximum Humidity 83    
Minimum Humidity 58    
Precipitation  
Precipitation 0.00 in - - ()
Sea Level Pressure  
Sea Level Pressure 29.99 in    
Wind  
Wind Speed 7 mph (ENE)    
Max Wind Speed 15 mph    
Max Gust Speed -    
Visibility 10 miles    
Events      
Averages and records for this station are not official NWS values.
T = Trace of Precipitation, MM = Missing Value Source: NWS Daily Summary

Daily Weather History Graph

Daily Weather History Graph

Search for Another Location

Airport or City:

Trip Planner

Search our weather history database for the weather conditions in past years. The results will help you decide how hot, cold, wet, or windy it might be!

Date:

Astronomy

Sep. 29, 2013 Rise Set
Actual Time 6:50 AM CDT 6:45 PM CDT
Civil Twilight 6:26 AM CDT 7:09 PM CDT
Nautical Twilight 5:58 AM CDT 7:36 PM CDT
Astronomical Twilight 5:31 AM CDT 8:04 PM CDT
Moon 1:52 AM CDT (9/29) 3:22 PM CDT (9/29)
Length of Visible Light 12h 42m
Length of Day
11h 55m
Waning Crescent, 27% of the Moon is Illuminated
Sep 29
Waning Crescent
Oct 4
New
Oct 11
First Quarter
Oct 18
Full
Oct 26
Last Quarter

Hourly Weather History & Observations

Time (CDT) Temp. Heat Index Dew Point Humidity Pressure Visibility Wind Dir Wind Speed Gust Speed Precip Events Conditions
5:07 AM 78.8 °F - 69.8 °F 74% 30.00 in 10.0 mi East 5.8 mph - N/A   Clear
5:36 AM 75.2 °F - 69.8 °F 83% 29.99 in 10.0 mi ESE 4.6 mph - N/A   Clear
6:29 AM 73.4 °F - 68.0 °F 83% 29.99 in 10.0 mi East 4.6 mph - N/A   Clear
7:00 AM 77.0 °F - 69.8 °F 78% 30.00 in 10.0 mi East 3.5 mph - N/A   Clear
7:28 AM 77.0 °F - 69.8 °F 78% 30.00 in 10.0 mi ESE 6.9 mph - N/A   Clear
7:46 AM 78.8 °F - 69.8 °F 74% 30.00 in 10.0 mi East 4.6 mph - N/A   Clear
8:19 AM 80.6 °F 83.9 °F 69.8 °F 70% 30.01 in 10.0 mi East 4.6 mph - N/A   Clear
8:45 AM 82.4 °F 86.3 °F 69.8 °F 66% 30.01 in 10.0 mi East 5.8 mph - N/A   Clear
9:26 AM 82.4 °F 87.2 °F 71.6 °F 70% 30.01 in 10.0 mi East 10.4 mph - N/A   Clear
9:45 AM 82.4 °F 86.3 °F 69.8 °F 66% 30.02 in 10.0 mi East 6.9 mph - N/A   Clear
10:20 AM 84.2 °F 88.4 °F 69.8 °F 62% 30.02 in 10.0 mi East 6.9 mph - N/A   Clear
10:45 AM 84.2 °F 88.4 °F 69.8 °F 62% 30.02 in 10.0 mi ENE 6.9 mph - N/A   Clear
11:15 AM 84.2 °F 88.4 °F 69.8 °F 62% 30.03 in 10.0 mi NE 5.8 mph - N/A   Clear
11:45 AM 84.2 °F 88.4 °F 69.8 °F 62% 30.02 in 10.0 mi NE 9.2 mph - N/A   Clear
12:15 PM 84.2 °F 88.4 °F 69.8 °F 62% 30.02 in 10.0 mi NE 6.9 mph - N/A   Mostly Cloudy
1:00 PM 84.2 °F 89.6 °F 71.6 °F 66% 30.00 in 10.0 mi ENE 9.2 mph - N/A   Partly Cloudy
1:27 PM 84.2 °F 89.6 °F 71.6 °F 66% 29.99 in 10.0 mi NE 15.0 mph - N/A   Clear
1:45 PM 84.2 °F 88.4 °F 69.8 °F 62% 29.98 in 10.0 mi NNE 9.2 mph - N/A   Clear
2:17 PM 84.2 °F 87.3 °F 68.0 °F 58% 29.96 in 10.0 mi ENE 8.1 mph - N/A   Clear
2:45 PM 84.2 °F 88.4 °F 69.8 °F 62% 29.95 in 10.0 mi ENE 9.2 mph - N/A   Clear
3:15 PM 84.2 °F 88.4 °F 69.8 °F 62% 29.95 in 10.0 mi NE 10.4 mph - N/A   Clear
3:46 PM 84.2 °F 89.6 °F 71.6 °F 66% 29.94 in 10.0 mi ENE 6.9 mph - N/A   Clear
4:17 PM 84.2 °F 88.4 °F 69.8 °F 62% 29.93 in 10.0 mi NE 5.8 mph - N/A   Clear
4:45 PM 82.4 °F 87.2 °F 71.6 °F 70% 29.94 in 10.0 mi NE 8.1 mph - N/A   Clear